Location: Palomar Mountain Lodge
(33.3110°N, 116.8495°W)
Time: 14:21:56
(UTC-07:00)

Cosmos 2297 Rocket - Pass Details

Date: 12 July 2018
Orbit: 841 x 842 km, 71.0° (Epoch: 14 July)

Event Time Altitude Azimuth Distance (km) Brightness Sun altitude
Rises 22:51:30 0° 353° (N) 3,397 6.3 -27.7°
Reaches altitude 10° 22:54:25 10° 6° (N) 2,459 5.2 -28.0°
Enters shadow 22:58:53 25° 59° (ENE) 1,653 3.7 -28.5°
